Weather in Hanam

South Korea     37°32′16″N   127°12′16″E
temp.,
°C
wind,
m/s
gust,
m/s
humid.,
%
clouds,
%
prec.,
mm/h
press.,
hPa
HPBL,
m
21 april, wed
wed2100:00+13ese0038100 0.0 102213
03:00+12ese1141100 0.0 102210
06:00+11e114517 0.0 102310
09:00+18ese113189 0.0 1023295
12:00+24ssw1120100 0.0 1021833
15:00+27sw1215100 0.0 10191432
18:00+24nw1122100 0.0 1019716
21:00+19wsw2225100 0.0 1021158
22 april, thu
thu2200:00+17w2334100 0.0 1022219
03:00+16sse1137100 0.0 102255
06:00+15e2240100 0.0 102144
09:00+19e1232100 0.0 1020318
12:00+24sse3723100 0.0 10192736
15:00+25se3721100 0.0 10173293
18:00+23nne0330100 0.0 10171072
21:00+19w1235100 0.0 1019123
23 april, fri
fri2300:00+18ne2639100 0.0 1018234
03:00+17se3646100 0.0 1019661
06:00+14ese3861100 0.2 1022618
09:00+14e2761100 0.8 1022561
12:00+16se2650100 0.0 1021936
15:00+16e3748100 0.1 1021886
18:00+15ene2458100 0.0 1021218
21:00+14ene236099 0.0 1022116
24 april, sat
sat2400:00+14ne1263100 0.0 102389
03:00+13ne1260100 0.0 102285
06:00+13ne1262100 0.0 102392
09:00+14nne0160100 0.1 1023282
12:00+20wnw23430 0.0 10211354
15:00+22nw34250 0.0 10192385
18:00+19w57402 0.0 1019688
21:00+15wsw11530 0.0 102060
25 april, sun
sun2500:00+14sse11590 0.0 102012
03:00+12ese22684 0.0 101943
06:00+11e23740 0.0 1020137
09:00+15e465432 0.0 1021910
12:00+19ese3346100 0.0 10201646
15:00+19se3344100 0.0 10191818
18:00+18e125099 0.0 1019409
21:00+17sse1254100 0.0 1020167